GFSSW_700_temp_000.txt.gz
Temp
9 9 9 9 10 10 10 10 10 10 10 11 11 11 11 11 11 11 11 11 11 11 11 11 10 11 11 11 10 10 10 10 10 10 10 10 10 11 10 10 10 10 9 9 9
9 9 9 9 9 10 10 10 10 10 10 10 11 11 11 11 11 11 11 11 11 11 11 11 11 11 10 10 10 10 10 11 10 10 10 10 11 10 11 10 11 10 10 9 10
9 9 9 9 10 10 10 10 10 10 10 10 10 11 11 11 11 11 11 11 11 11 10 10 10 10 10 10 10 10 11 10 11 11 11 11 11 11 11 11 10 11 10 11 10
8 9 9 9 9 9 9 9 9 10 10 10 10 10 10 10 11 11 11 11 10 10 10 10 10 10 10 9 9 10 10 10 11 11 11 11 11 11 11 12 10 10 10 11 11
8 8 8 8 9 9 9 9 9 9 9 9 9 10 10 10 11 10 10 10 10 10 10 10 10 9 9 8 9 10 11 10 10 10 10 10 11 11 12 12 11 10 10 10 10
8 8 8 8 8 8 8 9 9 9 9 9 9 9 9 10 10 10 10 10 10 10 10 10 10 9 9 9 9 9 10 10 10 10 10 11 11 10 13 11 11 11 11 10 11
7 8 8 8 8 8 8 8 8 8 8 9 9 9 9 10 10 10 10 10 10 10 10 10 10 9 9 9 9 9 10 10 11 11 9 10 11 12 11 11 11 11 11 11 11
7 8 8 7 7 8 8 7 8 8 8 8 8 8 9 10 10 10 10 10 10 10 10 10 9 9 9 9 9 9 8 10 11 10 10 9 11 12 10 10 11 11 11 11 11
7 7 8 8 7 8 8 7 7 8 8 7 8 8 9 10 10 10 10 10 10 10 10 10 9 9 10 8 8 9 8 9 10 10 9 9 10 11 10 9 10 10 10 10 11
6 7 7 7 7 7 7 7 7 7 7 7 8 7 8 9 9 9 9 9 9 9 9 9 9 9 9 8 8 9 9 9 10 10 9 9 9 10 10 10 9 10 10 10 11
6 6 6 6 7 7 7 7 7 7 8 8 8 8 8 8 8 9 9 9 9 9 9 9 8 9 11 9 9 8 8 8 10 11 8 9 9 9 9 10 10 10 11 11 11
6 6 6 6 6 6 6 7 7 6 6 7 7 7 7 8 8 8 9 8 8 9 8 7 8 10 9 9 8 8 8 9 9 10 9 9 8 9 9 10 10 10 11 11 10
6 6 6 6 6 6 5 5 6 6 5 6 8 7 7 8 8 9 9 9 9 8 8 9 9 9 8 8 8 9 8 9 9 9 7 8 7 9 9 9 9 11 11 11 11
5 5 6 6 5 5 5 5 5 5 5 5 6 7 8 9 8 9 8 8 8 8 8 7 8 8 8 8 8 8 8 8 7 7 5 7 5 8 8 8 9 11 12 11 11
4 4 4 5 5 5 5 5 5 5 2 6 6 7 8 8 9 8 8 8 8 7 7 7 7 7 7 8 7 7 7 8 7 6 5 5 5 7 8 8 10 11 11 11 10
2 3 3 3 3 4 4 4 4 3 2 5 6 7 7 8 8 8 8 8 8 7 6 8 8 7 7 7 7 7 6 6 6 6 2 5 6 7 8 9 9 9 10 10 10
1 1 2 3 3 2 2 2 2 1 5 6 6 6 6 7 7 8 8 8 7 7 8 8 8 8 8 7 6 6 5 4 1 0 3 7 8 8 8 8 9 9 9 10 9
1 1 1 1 1 1 1 1 1 3 4 5 6 5 5 6 6 6 7 7 8 7 7 6 7 7 8 8 8 7 6 4 0 3 6 7 6 8 9 8 9 9 8 9 8
0 1 1 0 0 0 0 -1 2 2 3 4 4 4 4 4 5 5 6 7 7 8 7 6 7 7 7 7 7 5 3 6 5 5 3 6 7 8 8 8 9 9 9 8 8
0 0 0 1 0 -0 -1 -1 2 0 1 1 2 3 4 4 4 4 4 5 5 6 6 6 5 6 6 6 6 6 6 3 3 -1 -2 5 7 7 8 8 9 8 8 8 7
-0 -0 1 -1 -0 -1 -1 -0 1 2 2 -0 -0 0 2 3 4 4 4 5 4 5 5 5 3 5 4 5 6 5 4 3 4 4 0 3 6 8 8 8 8 8 8 7 7
-3 -2 -1 -1 -2 -1 -1 1 0 2 1 -1 -0 0 -0 1 0 -0 1 2 3 3 4 4 3 2 4 4 4 4 4 4 3 4 4 4 5 7 7 8 7 6 5 6 6
-3 -3 -2 -3 -2 -2 -2 -1 -2 0 0 -1 -1 -1 0 -1 -2 -1 1 2 2 1 1 0 1 1 2 2 3 2 3 3 3 3 3 2 4 5 6 6 6 5 5 5 5
-4 -4 -4 -4 -3 -2 -3 -2 -2 -2 -2 -1 -1 -2 -2 -1 -1 -2 -1 1 2 2 -0 -1 -3 -3 -2 -0 1 1 2 2 2 1 2 2 3 4 4 4 4 5 5 5 4
-4 -4 -5 -4 -3 -3 -3 -3 -3 -3 -3 -1 -3 -2 -2 -3 -3 -2 -2 1 1 1 -1 -2 -3 -2 -2 -2 -1 -1 0 1 0 0 0 1 2 2 3 3 4 5 4 5 4
-4 -5 -6 -6 -5 -5 -5 -4 -4 -3 -4 -3 -3 -3 -2 -3 -2 -2 -1 -1 -1 -1 -2 -1 -3 -3 -3 -2 -3 -1 -1 -1 -0 -0 -1 -1 0 2 3 3 4 4 5 5 4
-5 -7 -7 -5 -6 -7 -6 -5 -5 -4 -4 -4 -3 -3 -3 -3 -3 -3 -3 -3 -3 -3 -3 -3 -3 -4 -4 -3 -2 -4 -2 -0 -1 1 1 -1 3 4 4 3 5 5 4 4 4

GFSSW_700_temp_003.txt.gz
Temp
9 9 9 9 9 9 9 9 9 10 10 10 10 11 11 11 11 11 11 11 11 11 11 11 11 11 10 10 10 10 10 11 10 10 10 10 10 11 10 10 10 10 10 10 10
9 9 9 9 9 9 9 9 9 9 10 10 10 10 10 11 11 11 11 11 11 11 11 10 10 10 10 10 10 10 10 10 10 10 10 10 10 10 11 11 11 11 11 10 10
8 8 9 9 9 9 9 9 9 9 9 9 9 10 10 10 11 11 11 11 11 10 10 10 10 10 10 11 10 10 11 10 10 10 10 10 11 10 11 12 12 11 11 11 11
8 8 8 8 9 9 9 9 9 9 9 9 9 9 10 10 10 10 10 10 10 10 10 10 10 10 10 10 10 10 11 10 10 10 10 10 11 11 11 12 11 11 11 11 12
8 8 8 8 8 8 8 9 9 9 9 9 9 9 9 10 10 10 10 10 10 10 10 10 9 9 10 10 10 10 11 10 10 10 10 10 11 10 12 12 11 11 11 11 11
7 8 8 8 8 8 8 8 8 9 8 9 9 8 9 10 10 10 10 10 10 10 10 10 9 9 9 10 9 9 10 10 11 11 10 10 11 10 13 11 11 11 11 11 11
7 7 7 7 8 8 8 8 8 8 8 8 8 8 9 10 10 9 9 10 10 10 10 9 9 9 9 10 9 9 9 10 12 11 10 10 11 12 11 11 11 11 11 11 11
7 7 7 7 7 7 8 7 8 8 8 8 8 8 9 10 10 10 10 10 10 9 9 9 9 9 9 9 8 8 8 9 12 10 10 9 11 12 10 10 11 11 11 10 11
6 6 7 7 7 7 7 7 7 8 7 7 7 7 8 9 10 10 10 10 10 10 10 9 9 9 9 8 7 8 8 9 10 10 9 9 10 11 10 10 10 11 10 10 10
6 6 6 6 6 7 7 7 7 7 7 7 7 7 8 9 9 9 9 9 9 9 9 9 8 8 9 8 7 10 8 9 9 10 8 8 9 10 10 10 9 10 10 11 11
6 6 6 6 6 6 6 6 7 7 7 7 7 7 7 7 7 8 8 9 9 9 9 9 8 8 11 10 9 8 8 7 9 10 8 8 8 9 10 10 10 10 10 11 12
5 5 5 6 6 6 6 6 6 6 6 7 7 6 7 7 7 8 8 8 8 8 8 8 7 10 9 8 8 7 7 7 8 9 8 8 8 8 9 10 10 9 11 12 12
4 5 5 5 6 6 6 5 5 5 5 6 7 7 7 7 8 8 8 8 8 7 8 8 8 8 8 8 7 8 7 8 8 8 8 8 7 9 10 10 10 10 11 12 11
4 4 4 4 5 5 5 5 5 5 5 5 7 7 8 8 7 8 8 7 7 7 7 6 7 7 6 7 7 8 8 8 6 6 5 7 5 7 8 9 9 10 11 12 12
3 3 4 4 4 4 4 4 4 5 -0 6 5 6 8 8 9 8 8 8 7 7 6 7 7 7 6 7 7 7 7 7 7 6 5 4 4 7 7 8 9 10 11 12 11
2 3 3 3 3 2 2 3 3 3 0 5 5 6 7 7 8 8 8 7 7 7 5 7 6 6 6 6 6 6 6 5 5 5 2 4 5 7 8 9 9 9 10 11 10
2 2 3 3 2 2 1 2 1 1 3 5 5 5 5 6 6 6 6 6 6 6 7 7 7 7 7 6 5 5 5 3 1 -1 2 7 7 7 8 8 9 9 9 9 9
1 1 2 1 1 1 1 1 -0 1 2 3 4 4 3 4 4 4 5 6 6 6 5 4 6 7 8 8 8 8 6 3 -1 1 5 7 5 8 8 8 9 9 9 9 9
0 0 0 1 0 0 -0 -1 -0 0 1 2 3 3 2 3 3 4 4 5 5 6 5 5 6 7 7 7 7 5 4 7 5 6 2 6 7 7 8 8 9 9 9 9 9
-0 -0 0 -0 -1 -0 -1 -1 -0 2 1 1 0 -0 -0 1 1 -0 1 3 4 4 5 4 3 5 5 5 5 5 5 4 2 -1 -2 5 6 6 7 8 9 9 8 9 8
-2 -2 -1 -2 -2 -1 -1 -1 -0 1 0 -1 -1 -1 -1 -0 0 1 -1 1 2 3 2 1 2 4 3 4 4 4 4 4 4 4 3 3 5 6 7 7 7 7 8 8 8
-3 -4 -2 -3 -3 -3 -3 -2 -2 -1 -1 -1 -2 -1 -1 -1 -1 -1 -1 0 1 2 0 0 -1 1 2 2 3 3 3 3 2 3 3 3 4 4 5 6 6 7 6 6 6
-4 -3 -3 -4 -3 -3 -3 -4 -3 -2 -3 -3 -2 -2 -2 -2 -2 -1 -1 1 1 0 -1 -0 -2 -3 -2 1 2 3 3 2 2 2 1 -1 1 5 3 3 3 4 4 4 5
-4 -5 -4 -4 -3 -4 -4 -4 -4 -3 -3 -3 -3 -3 -3 -2 -2 -2 -2 -0 1 -0 0 -2 -3 -2 -2 0 2 1 2 2 2 1 1 0 0 4 6 6 5 4 4 4 4
-4 -4 -4 -5 -5 -4 -4 -4 -4 -4 -4 -4 -4 -4 -4 -4 -3 -3 -3 -1 -1 -1 -0 -2 -3 -3 -2 -1 -1 -2 -1 1 0 1 -1 -0 -0 1 5 6 5 5 5 4 4
-5 -5 -5 -4 -5 -6 -5 -6 -5 -4 -5 -4 -5 -4 -5 -4 -4 -3 -3 -3 -3 -2 -2 -2 -3 -3 -3 -1 -1 -1 -0 1 1 1 -1 -2 -1 2 4 5 5 4 5 4 2
-5 -6 -7 -5 -6 -7 -4 -7 -6 -6 -6 -6 -5 -5 -4 -5 -5 -4 -4 -4 -4 -3 -3 -3 -3 -3 -3 -3 -3 -3 -2 0 -2 -1 -0 -2 2 3 3 3 3 4 3 2 3

GFSSW_700_temp_006.txt.gz
Temp
8 9 9 9 9 9 9 9 10 10 10 10 10 10 10 11 11 11 10 11 11 11 11 11 11 10 10 10 10 10 10 11 11 10 10 9 9 10 10 10 10 11 11 11 11
8 8 9 9 9 9 9 9 9 9 9 10 10 10 10 10 11 10 10 10 10 10 10 10 10 10 10 10 10 10 10 11 10 10 10 10 10 10 10 11 11 11 10 10 10
8 8 8 8 9 9 9 9 9 9 9 9 9 10 10 10 10 11 10 10 10 10 10 10 10 10 10 10 10 10 11 10 10 10 10 10 10 10 11 12 12 11 10 10 11
8 8 8 8 8 9 9 9 9 9 9 9 9 9 9 10 10 10 10 10 10 10 10 10 10 10 10 10 10 10 11 10 11 10 10 10 11 11 11 13 11 11 11 11 11
7 8 8 8 8 8 8 8 9 9 9 9 9 9 9 10 10 10 10 10 10 10 10 10 10 9 10 10 9 10 11 10 11 10 10 10 11 11 12 12 11 11 12 12 11
7 7 7 8 8 8 8 8 8 8 8 8 9 9 9 10 10 10 10 9 9 9 9 9 9 9 9 10 9 10 10 10 11 11 10 10 11 10 12 11 11 11 11 11 11
7 7 7 7 7 7 8 8 8 8 8 8 8 8 9 10 9 9 10 10 10 9 9 9 9 9 9 9 9 9 9 10 11 11 10 10 10 11 11 10 11 11 11 11 11
6 6 7 7 7 7 7 7 7 7 8 8 7 7 8 9 9 9 9 10 10 9 9 9 9 8 8 9 8 8 8 9 12 11 10 9 10 12 11 10 11 10 10 10 11
6 6 6 6 6 7 7 7 7 7 7 7 7 7 8 9 9 9 9 9 9 9 9 9 8 7 8 8 6 7 7 9 11 11 9 9 10 11 11 10 10 10 10 10 11
6 6 6 6 6 6 7 7 7 7 7 7 7 7 8 8 8 8 9 9 9 9 8 8 7 7 8 8 5 10 8 9 9 10 9 7 8 10 10 10 10 10 10 11 11
5 5 5 5 6 6 6 6 6 6 7 7 7 7 7 7 7 8 8 8 8 7 8 8 7 7 9 9 8 8 7 7 8 9 8 8 8 9 9 9 10 10 10 10 11
5 5 5 5 5 6 6 6 6 6 6 6 7 7 7 7 7 8 8 7 7 7 7 7 6 8 7 7 7 7 7 6 8 9 8 8 8 8 8 9 10 10 10 11 11
4 4 4 4 5 5 5 5 5 5 5 7 7 8 8 8 7 8 7 7 6 6 7 7 7 6 6 6 6 7 7 8 8 7 7 6 6 7 9 9 10 10 11 11 11
3 3 3 3 3 4 4 4 5 5 5 6 7 8 8 8 7 8 7 7 6 6 6 5 6 7 6 5 6 6 8 6 6 5 4 5 4 5 8 9 10 10 10 11 11
2 2 3 3 3 3 3 3 4 4 -0 6 5 6 7 7 8 7 8 8 6 6 6 7 6 6 6 6 5 6 6 6 5 5 4 3 3 6 7 8 9 10 10 10 10
1 1 2 2 2 2 2 2 2 2 0 5 5 6 6 6 6 6 6 6 6 6 5 7 7 5 6 6 5 5 5 5 5 4 2 5 4 6 7 8 8 8 9 9 9
1 1 2 1 2 1 1 1 1 1 2 4 4 4 4 4 4 4 4 4 4 4 5 6 7 7 6 6 5 5 4 3 -0 -2 0 6 6 7 7 7 8 8 9 9 9
-0 0 1 1 1 1 -0 -0 -0 0 2 3 4 4 3 4 3 3 4 4 4 4 4 3 4 6 6 6 6 6 6 3 -2 1 5 6 5 7 7 7 8 7 8 8 9
-0 0 0 0 -0 -0 -1 -1 -0 0 1 1 2 2 2 2 2 2 2 3 3 3 3 3 4 4 4 4 5 5 3 5 3 5 0 5 6 7 7 7 7 7 7 8 9
-0 -1 0 -1 -1 -2 -2 -1 -1 -1 0 0 0 0 1 0 0 0 1 2 2 3 3 3 2 3 2 3 3 3 4 3 1 -1 -2 4 4 5 6 6 7 7 7 7 8
-2 -2 -1 -1 -2 -2 -3 -2 -2 -1 -1 -1 -1 -1 -1 -1 -1 -1 -1 0 1 1 1 1 -0 1 0 2 3 2 2 2 2 2 2 2 3 4 4 5 6 7 6 6 7
-3 -3 -2 -3 -3 -3 -3 -3 -3 -2 -2 -3 -2 -2 -2 -2 -2 -1 -1 -1 -1 -1 -1 -0 -1 -2 -1 -0 1 1 1 2 2 2 2 1 1 6 6 5 5 5 6 5 5
-3 -3 -3 -4 -4 -4 -3 -2 -3 -2 -3 -3 -3 -3 -3 -3 -3 -3 -2 -2 -1 -1 -1 -1 -1 -2 -2 -0 1 -0 1 1 2 2 1 -0 -0 5 5 5 5 4 5 4 4
-4 -4 -4 -4 -3 -4 -5 -4 -3 -3 -3 -4 -4 -4 -4 -4 -3 -4 -3 -3 -2 -1 -2 -3 -3 -3 -1 -0 1 0 1 1 1 0 1 1 1 2 4 5 6 3 4 3 2
-4 -4 -5 -5 -6 -6 -5 -5 -5 -4 -5 -5 -4 -4 -4 -4 -4 -4 -4 -4 -3 -3 -4 -4 -3 -3 -2 -2 -2 -1 -1 -1 -1 -0 -0 1 1 1 2 4 4 3 3 3 1
-5 -5 -6 -5 -5 -6 -6 -5 -5 -5 -6 -5 -5 -5 -5 -5 -5 -5 -6 -6 -5 -3 -5 -3 -4 -3 -3 -3 -2 -3 -2 -2 -2 -2 -1 -2 -2 1 1 1 2 2 2 2 -1
-6 -6 -6 -5 -5 -6 -5 -7 -7 -7 -6 -6 -6 -6 -6 -6 -7 -6 -7 -6 -6 -6 -3 -6 -6 -6 -4 -4 -5 -5 -3 -2 -3 -2 -3 -3 -1 -3 -3 -3 -2 -2 -3 -3 -3

GFSSW_700_temp_009.txt.gz
Temp
8 8 9 9 9 9 9 9 9 9 10 10 10 10 10 10 10 10 10 10 10 10 10 10 10 10 10 10 9 9 9 11 11 10 10 10 10 10 10 10 11 11 11 10 10
8 8 8 9 9 9 9 9 9 9 9 10 10 10 10 10 10 10 10 10 10 10 10 10 10 10 10 9 9 9 10 10 10 10 10 10 10 10 10 11 11 11 10 10 10
8 8 8 8 9 9 9 9 9 9 9 9 9 10 10 10 10 10 10 10 10 10 9 10 10 9 9 9 9 9 10 10 10 10 10 10 11 10 11 12 11 10 10 10 11
8 8 8 8 8 8 8 8 9 9 9 9 9 9 10 10 10 10 10 10 9 9 9 9 9 9 9 9 9 9 10 10 11 10 9 10 11 11 11 12 11 11 11 11 11
7 7 7 8 8 8 8 8 8 8 8 9 9 9 9 10 10 9 9 10 10 10 10 9 9 9 9 9 9 9 10 10 10 10 10 10 11 10 11 12 11 11 11 11 11
7 7 7 7 7 8 8 8 8 8 8 8 8 9 9 10 10 9 9 9 9 9 9 9 9 9 8 9 8 9 9 10 10 10 10 10 11 10 12 11 11 11 11 11 11
7 7 7 7 7 7 8 8 8 8 8 8 8 8 8 10 9 9 9 9 9 9 9 8 8 8 9 9 9 8 9 10 11 10 10 9 10 11 11 10 10 11 10 11 11
6 6 6 7 7 7 7 7 8 8 7 7 7 7 8 9 9 9 9 9 9 9 9 8 7 7 7 8 8 7 7 9 12 11 10 9 9 12 11 10 10 10 10 10 10
6 6 6 6 6 7 7 7 7 7 7 7 7 7 8 9 9 9 9 9 9 9 8 8 7 7 7 7 6 7 6 8 10 10 9 8 8 11 10 10 10 10 10 10 10
5 5 6 6 6 6 6 6 6 7 7 6 6 6 7 8 8 8 9 8 8 8 8 8 7 7 8 7 5 8 8 8 8 9 8 7 8 9 10 9 9 9 10 10 10
5 5 5 5 5 6 6 6 6 6 7 7 6 6 6 7 7 7 8 8 7 7 7 7 7 7 8 8 7 6 6 6 7 8 7 7 7 7 8 8 9 10 10 11 11
4 4 4 4 4 5 5 5 5 5 6 6 6 6 7 7 7 7 7 7 7 7 6 7 6 8 7 6 6 5 5 5 7 8 7 6 6 7 7 8 10 10 11 11 11
3 3 3 3 3 4 4 4 5 5 4 6 7 7 7 7 7 7 7 6 6 5 6 6 6 6 6 5 5 6 5 7 6 6 6 6 6 7 9 9 9 11 10 11 11
2 3 3 3 3 3 3 3 3 4 4 5 6 7 8 7 6 7 7 6 5 6 5 4 6 6 6 5 6 5 7 6 5 4 3 4 3 5 7 9 9 10 10 10 10
2 2 2 2 2 2 2 3 3 2 -0 5 5 6 7 7 7 7 7 7 6 6 5 6 6 5 5 6 5 5 5 5 4 3 3 2 2 6 6 8 9 10 9 9 9
1 1 1 2 1 1 2 1 2 1 1 4 5 6 6 6 6 6 6 5 5 5 5 6 5 5 5 5 5 4 3 3 3 3 1 4 3 6 8 8 8 8 8 8 8
1 1 1 1 0 -0 0 0 -0 -0 2 3 3 4 4 4 4 4 4 4 4 3 5 6 5 5 5 5 5 4 3 2 -1 -3 -0 6 5 7 7 7 7 7 7 7 8
0 0 1 -0 -1 -0 -0 -1 -2 -1 0 2 3 3 3 3 3 4 4 4 4 4 3 3 3 4 5 5 4 4 4 2 -3 -1 3 4 4 6 6 6 6 6 7 7 7
-1 -1 -1 -0 -1 -1 -1 -1 -1 -0 0 1 1 1 1 2 2 2 2 2 2 3 2 2 3 3 3 3 3 3 2 4 3 3 -1 3 4 5 6 6 6 6 6 7 7
-1 -1 -1 -1 -2 -2 -2 -1 -1 -0 -0 -1 -0 0 1 0 0 0 0 1 1 1 2 1 1 2 2 2 2 2 3 2 1 -2 -1 2 4 4 5 5 6 6 6 7 6
-2 -2 -1 -2 -3 -3 -3 -2 -3 -1 -2 -2 -1 -1 -1 -1 -1 -1 -1 -1 -1 -0 0 -2 -2 0 -0 0 1 1 1 1 1 1 1 1 2 7 5 3 4 4 5 5 5
-2 -2 -2 -2 -3 -3 -3 -1 -1 -1 -3 -3 -3 -2 -2 -2 -2 -2 -2 -2 -2 -1 -1 -1 -2 -2 -1 -1 -1 -1 -0 -0 -1 0 1 1 2 4 6 4 3 4 3 3 3
-3 -2 -2 -4 -4 -4 -3 -3 -3 -2 -3 -4 -3 -3 -3 -3 -3 -3 -3 -2 -3 -3 -2 -3 -3 -3 -2 -1 0 -1 -0 -0 0 -1 -2 -2 0 2 3 4 3 2 1 1 1
-3 -4 -4 -5 -4 -5 -5 -4 -4 -3 -4 -4 -4 -4 -4 -4 -3 -4 -4 -4 -4 -4 -4 -4 -3 -3 -3 -3 -3 -3 -2 -1 -2 -2 -1 -1 -0 0 0 1 2 0 0 0 -0
-4 -4 -4 -4 -4 -5 -6 -6 -5 -5 -5 -5 -4 -4 -4 -4 -4 -5 -5 -4 -4 -4 -4 -4 -4 -4 -4 -4 -4 -4 -4 -4 -3 -3 -2 -2 -2 -2 -1 -1 -0 -1 -1 -1 -1
-5 -5 -5 -5 -5 -6 -5 -6 -7 -5 -6 -6 -6 -6 -6 -6 -5 -5 -5 -5 -6 -6 -7 -6 -6 -6 -6 -4 -5 -6 -5 -4 -3 -4 -5 -5 -5 -4 -4 -4 -3 -3 -3 -3 -3
-6 -6 -7 -5 -6 -6 -5 -7 -8 -7 -8 -7 -7 -7 -7 -7 -6 -6 -6 -7 -7 -8 -7 -8 -9 -8 -7 -7 -7 -7 -5 -5 -5 -4 -5 -5 -7 -6 -5 -4 -4 -4 -4 -4 -5